Location: Lango�lan
(48.1202°N, 3.2340°W)
Time: 00:51:18
(UTC+00:00)

ATLAS 2AS CENTAUR R/B - Pass Details

Date: 23 October 2019
Orbit: 926 x 1286 km, 63.7° (Epoch: 09 November)

Event Time Altitude Azimuth Distance (km) Brightness Sun altitude
Exits shadow 05:25:42 18° 276° (W) 2,748 4.2 -13.7°
Maximum altitude 05:31:05 37° 333° (NNW) 1,902 3.8 -12.8°
Drops below altitude 10° 05:38:19 10° 38° (NE) 3,238 5.7 -11.6°
Sets 05:41:22 0° 47° (NE) 4,170 6.5 -11.0°
